Location: Meriden
(44.0740°N, 93.3870°W)
Time: 14:23:16
(UTC-05:00)

Amateur Radio Satellites - All Passes

Search period start: 05 July 2015 13:53
Search period end: 06 July 2015 13:53
Location: Meriden, 44.0740°N, 93.3870°W

Satellite Date Start Highest point End Downlink Frequencies (MHz)
Time Altitude Azimuth
ISS 05 Jul 13:55:42 13:58:55 56° 27° (NNE) 14:02:06 145.825
Cosmos 2491 05 Jul 13:58:43 14:02:57 15° 76° (ENE) 14:07:45 435.465 / 435.565
ESTCUBE 1 05 Jul 13:59:30 14:02:38 18° 296° (WNW) 14:05:38 437.505/2401.250
Gurwin Techsat 1B 05 Jul 14:04:43 14:09:34 39° 68° (ENE) 14:14:31 435.225
ITAMSAT 1 05 Jul 14:04:47 14:09:32 38° 68° (ENE) 14:14:22 435.822/435.867
BEESAT 05 Jul 14:31:17 14:35:40 35° 96° (E) 14:40:03 436.000
SPROUT 05 Jul 14:35:51 14:39:20 24° 293° (WNW) 14:42:44 437.525
BEESAT 3 05 Jul 14:37:48 14:39:50 13° 34° (NE) 14:41:58 437.485
SWISSCUBE 05 Jul 14:46:51 14:51:34 54° 100° (E) 14:56:16 437.505
AO-7 05 Jul 14:50:02 14:57:07 33° 57° (ENE) 15:04:23 29.400- 29.500
PHONESAT 2.4 05 Jul 14:51:21 14:52:14 11° 210° (SSW) 14:53:02 2401.200-2431.200
BEESAT 2 05 Jul 14:51:24 14:53:39 14° 35° (NE) 14:56:00 435.950
PCSat 05 Jul 14:51:45 14:54:36 15° 105° (ESE) 14:57:42 145.827
ITUPSAT 1 05 Jul 14:52:41 14:57:26 55° 100° (E) 15:02:09 437.325
TISAT 1 05 Jul 15:13:58 15:16:27 15° 296° (WNW) 15:18:47 437.305
YUBILEINY 05 Jul 15:27:09 15:35:55 76° 265° (W) 15:44:39 435.215
KKS-1 05 Jul 15:28:13 15:31:42 23° 93° (E) 15:35:16 437.445
JAS-2 05 Jul 15:28:14 15:33:16 55° 71° (ENE) 15:38:38 435.910
HORYU 2 05 Jul 15:28:52 15:32:47 32° 69° (ENE) 15:36:46 437.375
ISS 05 Jul 15:32:32 15:35:05 21° 224° (SW) 15:37:35 145.825
Oscar 19 05 Jul 15:34:13 15:35:53 11° 275° (W) 15:37:11 437.125/150
ITAMSAT 1 05 Jul 15:44:33 15:49:08 30° 265° (W) 15:53:40 435.822/435.867
Gurwin Techsat 1B 05 Jul 15:45:02 15:49:40 29° 266° (W) 15:54:16 435.225
Cosmos 2491 05 Jul 15:49:41 15:58:28 76° 95° (E) 16:07:17 435.465 / 435.565
BEESAT 05 Jul 16:09:18 16:13:24 28° 294° (WNW) 16:17:27 436.000
BEESAT 3 05 Jul 16:14:24 16:18:29 82° 54° (NE) 16:22:30 437.485
AIST 2 05 Jul 16:16:46 16:20:08 23° 42° (NE) 16:23:31 435.215
STARS 05 Jul 16:16:56 16:21:08 45° 99° (E) 16:25:21 437.465
AIST 1 05 Jul 16:20:17 16:24:42 81° 279° (W) 16:29:09
SWISSCUBE 05 Jul 16:25:36 16:29:04 19° 297° (WNW) 16:32:23 437.505
Cosmos 2504 05 Jul 16:26:04 16:32:39 34° 70° (ENE) 16:39:48 435.465 / 435.565
O/OREOS (USA 219) 05 Jul 16:27:15 16:30:41 21° 53° (NE) 16:34:12 437.305
SO-50 05 Jul 16:27:30 16:31:21 26° 114° (ESE) 16:35:23 436.795
BEESAT 2 05 Jul 16:28:14 16:32:22 89° 51° (NE) 16:36:25 435.950
ITUPSAT 1 05 Jul 16:31:31 16:34:57 19° 297° (WNW) 16:38:14 437.325
PCSat 05 Jul 16:31:58 16:37:24 81° 301° (WNW) 16:42:52 145.827
AO-7 05 Jul 16:41:12 16:49:29 65° 256° (WSW) 16:57:49 29.400- 29.500
CUTE-I 05 Jul 16:52:18 16:53:44 11° 56° (NE) 16:55:27 437.470
KKS-1 05 Jul 17:04:23 17:08:28 36° 290° (WNW) 17:12:29 437.445
HORYU 2 05 Jul 17:05:46 17:09:29 25° 266° (W) 17:13:08 437.375
JAS-2 05 Jul 17:15:21 17:19:01 18° 272° (W) 17:22:37 435.910
Cubesat XI-IV 05 Jul 17:24:01 17:27:55 21° 62° (ENE) 17:31:57 437.490
YUBILEINY 05 Jul 17:26:38 17:31:24 15° 284° (WNW) 17:35:37 435.215
MOZHAYETS 4 05 Jul 17:29:51 17:34:22 48° 99° (E) 17:38:52
Cosmos 2491 05 Jul 17:49:12 17:56:24 26° 298° (WNW) 18:03:21 435.465 / 435.565
STARS 05 Jul 17:54:09 17:57:18 19° 295° (WNW) 18:00:21 437.465
AIST 2 05 Jul 17:54:53 17:58:57 47° 241° (WSW) 18:02:55 435.215
O/OREOS (USA 219) 05 Jul 18:06:02 18:10:23 46° 252° (WSW) 18:14:43 437.305
SO-50 05 Jul 18:07:04 18:11:40 46° 312° (NW) 18:16:25 436.795
Cosmos 2504 05 Jul 18:17:55 18:25:09 52° 269° (W) 18:32:50 435.465 / 435.565
PCSat 05 Jul 18:18:06 18:21:45 17° 323° (NW) 18:25:16 145.827
CUTE-I 05 Jul 18:27:38 18:32:57 71° 73° (ENE) 18:38:21 437.470
AO-7 05 Jul 18:41:01 18:44:12 12° 278° (W) 18:46:40 29.400- 29.500
DANDE 05 Jul 18:58:42 19:00:46 19° 69° (ENE) 19:02:45 436.750
Cubesat XI-IV 05 Jul 19:02:20 19:07:37 59° 259° (W) 19:12:58 437.490
MOZHAYETS 4 05 Jul 19:07:51 19:11:17 20° 295° (WNW) 19:14:36
PRISM 05 Jul 19:18:25 19:20:53 16° 90° (E) 19:23:30 437.425
BRITE-PL 05 Jul 19:23:13 19:27:47 30° 69° (ENE) 19:32:12 437.365/2234.400
STRAND 1 05 Jul 19:25:52 19:29:54 23° 92° (E) 19:34:02 437.568
CUSAT 1 05 Jul 19:27:36 19:30:15 75° 263° (W) 19:32:52 437.405
DOVE 4 05 Jul 19:32:23 19:34:31 13° 63° (ENE) 19:36:49 437.250
CANX-2 05 Jul 19:32:36 19:33:35 11° 61° (ENE) 19:34:48 2200.000
HO-68 05 Jul 19:33:54 19:39:39 28° 59° (ENE) 19:45:33 435.675
CUBESAT XI-V 05 Jul 19:37:00 19:41:44 85° 106° (ESE) 19:46:23 437.345
SO-50 05 Jul 19:51:30 19:53:30 12° 334° (NNW) 19:55:24 436.795
GONETS M04 05 Jul 20:03:22 20:11:43 49° 73° (ENE) 20:20:06
CINEMA 3 05 Jul 20:08:24 20:10:24 13° 63° (ENE) 20:12:32 145.822/145.860
CUTE-I 05 Jul 20:10:17 20:13:40 16° 272° (W) 20:16:50 437.470
SEEDS 05 Jul 20:12:50 20:15:55 21° 67° (ENE) 20:19:08 437.485
AAUSAT CUBESAT 2 05 Jul 20:20:56 20:23:39 18° 65° (ENE) 20:26:30 437.432
GOMX 1 05 Jul 20:29:21 20:34:26 73° 75° (ENE) 20:39:12 467.674
COMPASS 1 05 Jul 20:46:59 20:50:48 37° 71° (ENE) 20:54:41 437.405
CUBEBUG 2 05 Jul 20:47:06 20:49:31 15° 65° (ENE) 20:52:05 437.445
Oscar 11 05 Jul 20:48:40 20:51:25 17° 65° (ENE) 20:54:18 145.826/435.025
PRISM 05 Jul 20:52:35 20:56:39 48° 288° (WNW) 21:00:40 437.425
CUTE 1.7 + AOD 2 05 Jul 21:01:08 21:05:21 83° 77° (ENE) 21:09:36 437.475
BRITE-PL 05 Jul 21:01:09 21:06:13 38° 263° (W) 21:10:58 437.365/2234.400
STRAND 1 05 Jul 21:04:26 21:09:21 46° 291° (WNW) 21:14:14 437.568
CANX-2 05 Jul 21:04:44 21:08:56 81° 258° (WSW) 21:13:12 2200.000
DOVE 4 05 Jul 21:07:00 21:11:51 76° 259° (W) 21:16:25 437.250
Cosmos 2499 05 Jul 21:13:07 21:19:48 31° 67° (ENE) 21:27:03 435.465 / 435.565
CUBESAT XI-V 05 Jul 21:16:32 21:18:32 12° 300° (WNW) 21:20:20 437.345
FUNcube-1 05 Jul 21:18:14 21:21:11 19° 66° (ENE) 21:24:13 145.935
AUBIESAT-1 05 Jul 21:18:51 21:21:54 19° 98° (E) 21:25:11 437.475
HO-68 05 Jul 21:19:50 21:26:56 65° 258° (WSW) 21:34:03 435.675
UWE-3 05 Jul 21:33:36 21:37:27 36° 71° (ENE) 21:41:18 435.000/436.395/437.385
CINEMA 3 05 Jul 21:42:43 21:47:11 68° 259° (WSW) 21:51:28 145.822/145.860
SEEDS 05 Jul 21:47:38 21:51:31 37° 264° (W) 21:55:25 437.485
M-CUBED/EXP-1 PRIME 05 Jul 21:53:41 21:57:49 49° 105° (ESE) 22:02:15 437.505
AAUSAT CUBESAT 2 05 Jul 21:54:59 21:58:57 44° 262° (W) 22:02:57 437.432
50 SAT 05 Jul 22:00:01 22:01:18 12° 63° (ENE) 22:02:45 437.505
VELOX 1 05 Jul 22:00:11 22:02:16 14° 62° (ENE) 22:04:33 145.980
DELFI C3 05 Jul 22:00:31 22:04:30 66° 75° (ENE) 22:08:30 145.870
GONETS M04 05 Jul 22:00:34 22:08:27 39° 273° (W) 22:16:09
DX 1 05 Jul 22:02:31 22:06:00 24° 66° (ENE) 22:09:34 434.975-435.025
GOMX 1 05 Jul 22:10:24 22:13:03 14° 272° (W) 22:15:23 467.674
ZACube-1 05 Jul 22:17:29 22:21:41 85° 76° (ENE) 22:25:52 437.345
UKube-1 05 Jul 22:20:45 22:24:37 33° 69° (ENE) 22:28:33 .
CUBEBUG 2 05 Jul 22:21:42 22:25:53 52° 260° (W) 22:30:00 437.445
Oscar 11 05 Jul 22:23:05 22:27:15 49° 261° (W) 22:31:28 145.826/435.025
COMPASS 1 05 Jul 22:23:32 22:26:39 20° 269° (W) 22:29:39 437.405
HUMSAT D 05 Jul 22:24:40 22:28:31 43° 72° (ENE) 22:32:26 437.325/437.525
AISAT 05 Jul 22:45:26 22:49:33 37° 70° (ENE) 22:53:41 437.250
ANTELSAT 05 Jul 22:46:49 22:49:25 16° 90° (E) 22:52:13 437.575/2403.000
AUBIESAT-1 05 Jul 22:52:44 22:56:48 47° 293° (WNW) 23:01:07 437.475
FUNcube-1 05 Jul 22:53:21 22:57:18 39° 262° (W) 23:01:12 145.935
TIGRISAT 05 Jul 22:58:04 23:01:13 20° 92° (E) 23:04:33 435.000
CUBEBUG 1 05 Jul 22:58:59 23:02:44 28° 68° (ENE) 23:06:34 437.445
Cosmos 2499 05 Jul 23:05:44 23:13:27 61° 267° (W) 23:21:42 435.465 / 435.565
UWE-3 05 Jul 23:10:55 23:14:08 20° 268° (W) 23:17:13 435.000/436.395/437.385
HO-68 05 Jul 23:14:40 23:16:16 10° 278° (W) 23:17:16 435.675
SO-50 05 Jul 23:18:10 23:19:25 11° 23° (NNE) 23:20:48 436.795
ESTCUBE 1 05 Jul 23:22:31 23:26:57 57° 73° (ENE) 23:31:27 437.505/2401.250
QB50P2 05 Jul 23:27:43 23:30:28 17° 91° (E) 23:33:20 145.880/145.840
POPSAT HIP 1 05 Jul 23:28:07 23:30:47 17° 91° (E) 23:33:34 437.405
M-CUBED/EXP-1 PRIME 05 Jul 23:29:18 23:32:22 19° 299° (WNW) 23:35:29 437.505
50 SAT 05 Jul 23:31:41 23:35:28 61° 259° (W) 23:39:17 437.505
VELOX 1 05 Jul 23:33:51 23:38:19 72° 258° (WSW) 23:42:47 145.980
PCSat 05 Jul 23:35:47 23:39:54 22° 40° (NE) 23:44:06 145.827
UNISAT 6 05 Jul 23:37:39 23:41:57 52° 100° (E) 23:46:20 437.425
DX 1 05 Jul 23:38:04 23:42:06 35° 263° (W) 23:46:08 434.975-435.025
DELFI C3 05 Jul 23:39:11 23:40:06 10° 273° (W) 23:40:48 145.870
SPROUT 05 Jul 23:55:05 23:58:53 31° 69° (ENE) 00:02:44 437.525
UKube-1 05 Jul 23:57:14 00:00:49 24° 266° (W) 00:04:21 .
HUMSAT D 06 Jul 00:01:51 00:04:32 16° 269° (W) 00:07:05 437.325/437.525
QB50P1 06 Jul 00:05:59 00:10:00 43° 98° (E) 00:14:01 145.935-145.965
NANOSAT C BR1 06 Jul 00:19:30 00:23:40 60° 101° (E) 00:27:49 145.865
ANTELSAT 06 Jul 00:22:16 00:26:34 53° 287° (WNW) 00:30:55 437.575/2403.000
AISAT 06 Jul 00:22:41 00:26:15 22° 267° (W) 00:29:44 437.250
DUCHIFAT 1 06 Jul 00:25:52 00:30:04 69° 103° (ESE) 00:34:15 145.980
ITUPSAT 1 06 Jul 00:27:57 00:28:25 10° 58° (ENE) 00:29:10 437.325
TISAT 1 06 Jul 00:30:15 00:34:20 49° 72° (ENE) 00:38:27 437.305
POLYITAN 1 06 Jul 00:32:57 00:37:11 87° 103° (ESE) 00:41:24 437.675
TIGRISAT 06 Jul 00:34:03 00:38:11 41° 289° (WNW) 00:42:21 435.000
CUBEBUG 1 06 Jul 00:35:07 00:39:03 30° 265° (W) 00:42:56 437.445
BUGSAT 1 06 Jul 00:36:04 00:40:06 58° 101° (E) 00:44:04 437.445
SO-50 06 Jul 00:56:45 01:01:24 38° 46° (NE) 01:06:01 436.795
ESTCUBE 1 06 Jul 01:01:30 01:04:15 15° 271° (W) 01:06:51 437.505/2401.250
QB50P2 06 Jul 01:02:36 01:06:38 44° 288° (WNW) 01:10:37 145.880/145.840
POPSAT HIP 1 06 Jul 01:02:54 01:06:56 45° 288° (WNW) 01:10:56 437.405
Cosmos 2499 06 Jul 01:03:43 01:05:19 10° 284° (WNW) 01:06:17 435.465 / 435.565
RS-15 06 Jul 01:11:51 01:19:45 25° 103° (ESE) 01:28:17 29.354- 29.394
UNISAT 6 06 Jul 01:15:29 01:18:23 17° 296° (WNW) 01:21:12 437.425
PCSat 06 Jul 01:18:31 01:23:57 75° 242° (WSW) 01:29:21 145.827
SPROUT 06 Jul 01:31:24 01:35:00 25° 266° (W) 01:38:33 437.525
BEESAT 06 Jul 01:39:03 01:43:37 47° 70° (ENE) 01:48:13 436.000
QB50P1 06 Jul 01:42:37 01:45:36 19° 295° (WNW) 01:48:28 145.935-145.965
SWISSCUBE 06 Jul 01:54:41 01:59:26 73° 74° (ENE) 02:04:15 437.505
NANOSAT C BR1 06 Jul 01:56:47 01:59:04 14° 297° (WNW) 02:01:10 145.865
Cosmos 2491 06 Jul 01:58:32 02:06:38 41° 70° (ENE) 02:14:45 435.465 / 435.565
ITUPSAT 1 06 Jul 02:00:46 02:05:33 75° 74° (ENE) 02:10:23 437.325
Oscar 19 06 Jul 02:00:59 02:05:21 28° 94° (E) 02:09:48 437.125/150
DUCHIFAT 1 06 Jul 02:03:32 02:05:23 12° 298° (WNW) 02:07:02 145.980
TISAT 1 06 Jul 02:07:48 02:10:27 15° 270° (W) 02:12:55 437.305
POLYITAN 1 06 Jul 02:12:03 02:12:29 10° 299° (WNW) 02:12:43 437.675
BUGSAT 1 06 Jul 02:13:03 02:15:07 13° 297° (WNW) 02:17:01 437.445
ITAMSAT 1 06 Jul 02:18:33 02:19:49 11° 85° (E) 02:21:26 435.822/435.867
Gurwin Techsat 1B 06 Jul 02:20:59 02:23:18 13° 86° (E) 02:25:55 435.225
AIST 1 06 Jul 02:26:20 02:30:07 28° 72° (ENE) 02:33:54
KKS-1 06 Jul 02:27:50 02:31:30 26° 67° (ENE) 02:35:14 437.445
YUBILEINY 06 Jul 02:35:16 02:41:55 27° 82° (E) 02:48:53 435.215
SO-50 06 Jul 02:37:28 02:41:55 33° 244° (WSW) 02:46:14 436.795
PCSat 06 Jul 03:05:50 03:06:34 10° 257° (WSW) 03:06:56 145.827
STARS 06 Jul 03:15:04 03:19:18 48° 72° (ENE) 03:23:33 437.465
BEESAT 06 Jul 03:18:09 03:21:44 20° 269° (W) 03:25:13 436.000
RS-15 06 Jul 03:19:52 03:30:49 88° 306° (NW) 03:42:12 29.354- 29.394
SWISSCUBE 06 Jul 03:35:33 03:37:55 13° 273° (W) 03:40:02 437.505
Oscar 19 06 Jul 03:40:06 03:44:49 38° 292° (WNW) 03:49:30 437.125/150
ITUPSAT 1 06 Jul 03:41:52 03:44:06 13° 273° (W) 03:46:04 437.325
ITAMSAT 1 06 Jul 03:54:57 04:00:13 87° 99° (E) 04:05:26 435.822/435.867
Cosmos 2491 06 Jul 03:55:24 04:03:41 48° 271° (W) 04:11:49 435.465 / 435.565
Gurwin Techsat 1B 06 Jul 03:58:43 04:04:04 83° 287° (WNW) 04:09:24 435.225
KKS-1 06 Jul 04:04:00 04:08:03 32° 264° (W) 04:12:03 437.445
AIST 1 06 Jul 04:04:04 04:07:42 26° 271° (W) 04:11:14
JAS-2 06 Jul 04:18:28 04:24:56 50° 99° (E) 04:32:08 435.910
YUBILEINY 06 Jul 04:29:24 04:38:05 70° 282° (WNW) 04:46:47 435.215
MOZHAYETS 4 06 Jul 04:33:04 04:37:30 53° 73° (ENE) 04:42:01
AO-7 06 Jul 04:41:12 04:48:57 41° 97° (E) 04:56:43 29.400- 29.500
STARS 06 Jul 04:53:05 04:56:03 17° 269° (W) 04:58:52 437.465
HORYU 2 06 Jul 04:54:27 04:58:49 53° 100° (E) 05:03:13 437.375
Cosmos 2504 06 Jul 05:00:52 05:05:33 21° 82° (E) 05:10:31 435.465 / 435.565
CUBESAT XI-V 06 Jul 05:07:32 05:09:24 13° 61° (ENE) 05:11:28 437.345
RS-15 06 Jul 05:35:05 05:45:00 35° 333° (NNW) 05:55:12 29.354- 29.394
ITAMSAT 1 06 Jul 05:36:15 05:39:04 14° 301° (WNW) 05:41:40 435.822/435.867
Gurwin Techsat 1B 06 Jul 05:40:51 05:43:19 13° 302° (WNW) 05:45:32 435.225
JAS-2 06 Jul 06:03:58 06:09:52 35° 294° (WNW) 06:16:15 435.910
PRISM 06 Jul 06:10:19 06:12:42 15° 63° (ENE) 06:15:15 437.425
MOZHAYETS 4 06 Jul 06:12:06 06:15:07 17° 271° (W) 06:17:59
BEESAT 2 06 Jul 06:25:50 06:27:03 11° 110° (ESE) 06:28:28 435.950
YUBILEINY 06 Jul 06:32:00 06:37:00 15° 307° (NW) 06:41:31 435.215
HORYU 2 06 Jul 06:32:06 06:35:06 17° 297° (WNW) 06:37:59 437.375
AO-7 06 Jul 06:33:56 06:41:56 50° 297° (WNW) 06:49:50 29.400- 29.500
CUBESAT XI-V 06 Jul 06:41:29 06:46:12 85° 255° (WSW) 06:50:58 437.345
O/OREOS (USA 219) 06 Jul 06:42:15 06:44:54 16° 101° (E) 06:47:44 437.305
STRAND 1 06 Jul 06:42:55 06:47:40 40° 69° (ENE) 06:52:29 437.568
CUTE-I 06 Jul 06:43:52 06:48:11 25° 92° (E) 06:52:34 437.470
Cosmos 2504 06 Jul 06:50:12 06:57:06 69° 281° (WNW) 07:04:03 435.465 / 435.565
VERMONT LUNAR 06 Jul 06:52:26 06:53:46 12° 153° (SSE) 06:55:12 437.305
CUSAT 1 06 Jul 06:54:46 06:57:22 14° 92° (E) 07:00:00 437.405
Cubesat XI-IV 06 Jul 07:18:04 07:23:18 50° 99° (E) 07:28:30 437.490
PRISM 06 Jul 07:43:39 07:47:45 54° 260° (W) 07:51:53 437.425
BEESAT 3 06 Jul 07:45:33 07:49:38 85° 303° (WNW) 07:53:46 437.485
RS-15 06 Jul 07:52:44 08:01:51 27° 7° (N) 08:11:22 29.354- 29.394
AIST 2 06 Jul 07:54:21 07:57:48 25° 114° (ESE) 08:01:21 435.215
BEESAT 2 06 Jul 08:00:27 08:04:34 76° 305° (NW) 08:08:43 435.950
DANDE 06 Jul 08:07:55 08:14:35 49° 97° (E) 08:19:43 436.750
AUBIESAT-1 06 Jul 08:08:33 08:11:16 24° 62° (ENE) 08:14:10 437.475
ISS 06 Jul 08:11:34 08:14:43 49° 143° (SE) 08:17:53 145.825
O/OREOS (USA 219) 06 Jul 08:19:34 08:23:56 53° 298° (WNW) 08:28:20 437.305
STRAND 1 06 Jul 08:22:36 08:27:00 27° 266° (W) 08:31:21 437.568
CUTE-I 06 Jul 08:23:23 08:28:31 46° 291° (WNW) 08:33:35 437.470
VERMONT LUNAR 06 Jul 08:27:19 08:30:10 33° 168° (SSE) 08:33:02 437.305
AO-7 06 Jul 08:29:14 08:32:55 13° 319° (NW) 08:36:12 29.400- 29.500
GOMX 1 06 Jul 08:31:10 08:33:40 16° 90° (E) 08:36:18 467.674
CUSAT 1 06 Jul 08:33:40 08:39:54 78° 281° (WNW) 08:44:33 437.405
M-CUBED/EXP-1 PRIME 06 Jul 08:44:03 08:47:22 79° 71° (ENE) 08:50:52 437.505
CUTE 1.7 + AOD 2 06 Jul 08:46:29 08:48:27 13° 88° (E) 08:50:39 437.475
HO-68 06 Jul 08:46:42 08:52:02 23° 90° (E) 08:57:36 435.675
Cosmos 2504 06 Jul 08:48:24 08:51:00 12° 305° (NW) 08:53:11 435.465 / 435.565
CANX-2 06 Jul 08:49:38 08:52:15 16° 90° (E) 08:55:01 2200.000
Cubesat XI-IV 06 Jul 08:58:48 09:03:07 25° 297° (WNW) 09:07:19 437.490
BRITE-PL 06 Jul 09:04:35 09:08:52 62° 100° (E) 09:12:58 437.365/2234.400
DOVE 4 06 Jul 09:05:12 09:08:28 22° 93° (E) 09:11:49 437.250
GONETS M04 06 Jul 09:05:58 09:14:22 54° 91° (E) 09:22:48
PHONESAT 2.4 06 Jul 09:12:51 09:15:39 24° 160° (SSE) 09:18:30 2401.200-2431.200
BEESAT 3 06 Jul 09:26:02 09:28:17 14° 325° (NW) 09:30:25 437.485
SEEDS 06 Jul 09:30:13 09:34:02 31° 95° (E) 09:37:52 437.485
AIST 2 06 Jul 09:32:13 09:36:13 38° 312° (NW) 09:40:15 435.215
CINEMA 3 06 Jul 09:36:24 09:39:41 23° 93° (E) 09:43:07 145.822/145.860
AAUSAT CUBESAT 2 06 Jul 09:36:34 09:40:02 25° 94° (E) 09:43:35 437.432
BEESAT 2 06 Jul 09:41:19 09:43:24 13° 326° (NW) 09:45:20 435.950
AUBIESAT-1 06 Jul 09:43:24 09:46:04 21° 261° (W) 09:48:45 437.475
ANTELSAT 06 Jul 09:47:49 09:50:30 17° 64° (ENE) 09:53:19 437.575/2403.000
ISS 06 Jul 09:48:15 09:51:13 32° 341° (NNW) 09:54:12 145.825
DANDE 06 Jul 09:52:14 09:57:48 27° 288° (WNW) 10:02:11 436.750
Cosmos 2499 06 Jul 09:54:31 09:59:01 19° 81° (E) 10:03:53 435.465 / 435.565
TIGRISAT 06 Jul 09:58:43 10:01:52 21° 66° (ENE) 10:05:06 435.000
VERMONT LUNAR 06 Jul 10:03:49 10:06:47 41° 185° (S) 10:09:46 437.305
COMPASS 1 06 Jul 10:03:57 10:08:09 59° 100° (E) 10:12:20 437.405
ZACube-1 06 Jul 10:05:46 10:07:59 14° 89° (E) 10:10:26 437.345
RS-15 06 Jul 10:06:58 10:18:01 48° 39° (NE) 10:29:38 29.354- 29.394
GOMX 1 06 Jul 10:08:09 10:12:10 44° 288° (WNW) 10:16:07 467.674
Oscar 11 06 Jul 10:09:08 10:12:47 26° 94° (E) 10:16:28 145.826/435.025
CUBEBUG 2 06 Jul 10:11:14 10:14:47 26° 94° (E) 10:18:28 437.445
CUTE 1.7 + AOD 2 06 Jul 10:20:35 10:24:49 59° 286° (WNW) 10:29:03 437.475
QB50P2 06 Jul 10:22:28 10:25:10 17° 65° (ENE) 10:28:00 145.880/145.840
POPSAT HIP 1 06 Jul 10:22:44 10:25:23 17° 64° (ENE) 10:28:08 437.405
CANX-2 06 Jul 10:24:20 10:28:30 49° 287° (WNW) 10:32:38 2200.000
HO-68 06 Jul 10:33:21 10:40:30 72° 290° (WNW) 10:47:36 435.675
UNISAT 6 06 Jul 10:38:09 10:42:19 54° 73° (ENE) 10:46:30 437.425
FUNcube-1 06 Jul 10:39:49 10:43:37 32° 96° (E) 10:47:30 145.935
DOVE 4 06 Jul 10:42:38 10:46:20 31° 291° (WNW) 10:50:00 437.250
BRITE-PL 06 Jul 10:44:49 10:46:54 13° 298° (WNW) 10:48:48 437.365/2234.400
PHONESAT 2.4 06 Jul 10:50:00 10:53:17 45° 176° (S) 10:56:37 2401.200-2431.200
UWE-3 06 Jul 10:57:36 11:01:49 67° 101° (ESE) 11:06:07 435.000/436.395/437.385
QB50P1 06 Jul 11:00:01 11:03:58 39° 71° (ENE) 11:07:56 145.935-145.965
GONETS M04 06 Jul 11:03:36 11:11:36 37° 292° (WNW) 11:19:28
SEEDS 06 Jul 11:06:12 11:09:43 25° 292° (WNW) 11:13:10 437.485
50 SAT 06 Jul 11:07:14 11:09:07 13° 90° (E) 11:11:10 437.505
AAUSAT CUBESAT 2 06 Jul 11:11:57 11:15:40 30° 291° (WNW) 11:19:19 437.432
DELFI C3 06 Jul 11:12:56 11:17:03 88° 284° (WNW) 11:21:08 145.870
NANOSAT C BR1 06 Jul 11:13:11 11:17:19 54° 73° (ENE) 11:21:27 145.865
CINEMA 3 06 Jul 11:13:15 11:17:00 32° 290° (WNW) 11:20:45 145.822/145.860
ESTCUBE 1 06 Jul 11:16:25 11:17:21 11° 86° (E) 11:18:34 437.505/2401.250
DUCHIFAT 1 06 Jul 11:19:21 11:23:31 62° 74° (ENE) 11:27:42 145.980
ANTELSAT 06 Jul 11:22:48 11:26:58 48° 261° (W) 11:31:07 437.575/2403.000
VELOX 1 06 Jul 11:23:44 11:26:50 19° 91° (E) 11:30:03 145.980
DX 1 06 Jul 11:24:41 11:28:38 34° 97° (E) 11:32:36 434.975-435.025
ISS 06 Jul 11:25:43 11:28:16 21° 1° (N) 11:30:49 145.825
POLYITAN 1 06 Jul 11:27:04 11:31:19 79° 74° (ENE) 11:35:33 437.675
BUGSAT 1 06 Jul 11:27:11 11:31:15 50° 73° (ENE) 11:35:20 437.445
TIGRISAT 06 Jul 11:34:26 11:38:26 38° 263° (W) 11:42:24 435.000
ZACube-1 06 Jul 11:40:35 11:44:43 54° 287° (WNW) 11:48:56 437.345
VERMONT LUNAR 06 Jul 11:40:53 11:43:18 20° 201° (SSW) 11:45:43 437.305
COMPASS 1 06 Jul 11:41:00 11:43:23 14° 296° (WNW) 11:45:38 437.405
UKube-1 06 Jul 11:42:15 11:46:28 48° 100° (E) 11:50:38 .
HUMSAT D 06 Jul 11:42:18 11:46:28 69° 102° (ESE) 11:50:39 437.325/437.525
Cosmos 2499 06 Jul 11:44:20 11:51:23 75° 280° (W) 11:58:36 435.465 / 435.565
Oscar 11 06 Jul 11:45:08 11:48:58 30° 291° (WNW) 11:52:46 145.826/435.025
CUBEBUG 2 06 Jul 11:47:49 11:51:30 29° 290° (WNW) 11:55:11 437.445
QB50P2 06 Jul 11:56:37 12:00:44 48° 261° (W) 12:04:52 145.880/145.840
POPSAT HIP 1 06 Jul 11:56:46 12:00:54 49° 260° (W) 12:05:02 437.405
AISAT 06 Jul 12:10:39 12:15:02 61° 100° (E) 12:19:23 437.250
FUNcube-1 06 Jul 12:16:23 12:19:50 24° 292° (WNW) 12:23:16 145.935
UNISAT 6 06 Jul 12:17:09 12:19:31 14° 271° (W) 12:21:42 437.425
RS-15 06 Jul 12:19:37 12:31:08 65° 243° (WSW) 12:43:01 29.354- 29.394
CUBEBUG 1 06 Jul 12:21:56 12:26:06 43° 98° (E) 12:30:15 437.445
HO-68 06 Jul 12:22:58 12:27:09 16° 309° (NW) 12:31:01 435.675
PHONESAT 2.4 06 Jul 12:27:50 12:31:02 35° 193° (SSW) 12:34:13 2401.200-2431.200
UWE-3 06 Jul 12:35:53 12:37:55 13° 297° (WNW) 12:39:47 435.000/436.395/437.385
QB50P1 06 Jul 12:36:53 12:40:00 19° 268° (W) 12:43:02 145.935-145.965
50 SAT 06 Jul 12:40:16 12:44:04 49° 287° (WNW) 12:47:52 437.505
YUBILEINY 06 Jul 12:43:08 12:47:14 14° 52° (NE) 12:51:51 435.215
ESTCUBE 1 06 Jul 12:50:20 12:54:54 80° 285° (WNW) 12:59:25 437.505/2401.250
NANOSAT C BR1 06 Jul 12:51:09 12:53:32 14° 271° (W) 12:55:44 145.865
DUCHIFAT 1 06 Jul 12:57:53 12:59:48 12° 272° (W) 13:01:29 145.980
VELOX 1 06 Jul 12:59:26 13:03:38 43° 289° (WNW) 13:07:47 145.980
DX 1 06 Jul 13:01:12 13:04:45 24° 294° (WNW) 13:08:12 434.975-435.025
ISS 06 Jul 13:02:14 13:05:17 36° 21° (NNE) 13:08:20 145.825
BUGSAT 1 06 Jul 13:04:29 13:07:03 15° 270° (W) 13:09:27 437.445
SPROUT 06 Jul 13:15:40 13:19:50 49° 99° (E) 13:23:59 437.525
Oscar 19 06 Jul 13:19:08 13:24:01 48° 71° (ENE) 13:28:57 437.125/150
UKube-1 06 Jul 13:19:17 13:22:16 18° 296° (WNW) 13:25:07 .
HUMSAT D 06 Jul 13:19:54 13:21:43 12° 297° (WNW) 13:23:22 437.325/437.525
ITAMSAT 1 06 Jul 13:36:39 13:40:31 22° 63° (ENE) 13:44:33 435.822/435.867
BEESAT 06 Jul 13:40:40 13:41:25 10° 86° (E) 13:42:28 436.000
Cosmos 2499 06 Jul 13:42:40 13:46:11 14° 305° (NW) 13:49:20 435.465 / 435.565
Gurwin Techsat 1B 06 Jul 13:42:45 13:47:00 26° 64° (ENE) 13:51:23 435.225
